{"data":{"norad_id":60318,"epoch":"2026-05-24T17:27:21.661920Z","epoch_age_seconds":98837,"freshness":"FRESH","line1":"1 60318U 24133T   26144.72733405 -.00003301  00000+0 -99366-4 0  9994","line2":"2 60318  53.1618 303.7568 0001202  83.9574 276.1563 15.30198147103280","mean_motion":15.30198147,"eccentricity":0.0001202,"inclination_deg":53.1618,"raan_deg":303.7568,"arg_perigee_deg":83.9574,"mean_anomaly_deg":276.1563,"bstar":-9.9366e-5,"rev_number":10328,"period_min":94.105459663715,"perigee_km":474.39682856512,"apogee_km":476.04437573268,"semimajor_km":6853.3576021489,"source":"CELESTRAK","updated_at":"2026-05-25T13:38:19.231548Z"}}